{"data":{"norad_id":53172,"epoch":"2026-05-24T11:45:04.546944Z","epoch_age_seconds":118422,"freshness":"FRESH","line1":"1 53172U 22083AS  26144.48963596  .00000060  00000+0  21851-4 0  9996","line2":"2 53172  53.2148 178.7529 0000914  77.5158 282.5937 15.08839870212863","mean_motion":15.0883987,"eccentricity":9.14e-5,"inclination_deg":53.2148,"raan_deg":178.7529,"arg_perigee_deg":77.5158,"mean_anomaly_deg":282.5937,"bstar":2.1851e-5,"rev_number":21286,"period_min":95.437562900561,"perigee_km":539.11149201825,"apogee_km":540.37608062599,"semimajor_km":6917.8807863221,"source":"CELESTRAK","updated_at":"2026-05-25T13:38:17.324240Z"}}